Powrót do katalogu

DELTA 1 R/B

AktywnySSO
NORAD 3616·ROCKET BODY·🇺🇸 United States

Wystrzelony Dec 15, 1968 z Vandenberg Space Force Base

Loading…

Następne Przeloty (najbliższe 24 godziny)

TLE

ŚwieżeSource: Space-Track

Epoka: Sep 14, 2026, 06:57 UTC

1 03616U 68114B   26257.29027457 -.00000043  00000-0  83594-5 0  9996
2 03616 101.6921 201.8777 0013102 212.0858 315.8041 12.51403575639747

Śledź DELTA 1 R/B w czasie rzeczywistym z AllMySat

Download on the App Store